Flag for France

Past Weather in Caen, Normandie, France — Yesterday and Last 2 Weeks

Now
52 °F

Light rain. Overcast.


Feels Like: 47 °F
Forecast: 63 / 55 °F
Wind: 14 mph from Northwest

Location: Caen Airport
Current Time: Sep 27, 2020 at 4:53:28 pm
Latest Report: Sep 27, 2020 at 4:00 pm
Visibility: 4 mi
Pressure29.92 "Hg
Humidity: 88%
Dew Point: 48 °F
Location of CaenLocation

Past Weather in Caen — Graph

°F

Caen Temperature Yesterday

Maximum temperature yesterday: 55 °F (at 1:00 pm)
Minimum temperature yesterday: 48 °F (at 7:00 am)
Average temperature yesterday: 53 °F

High & Low Weather Summary for the Past Weeks

 TemperatureHumidityPressure
High90 °F (Sep 14, 3:30 pm)100% (Sep 13, 5:30 am)30.30 "Hg (Sep 13, 5:30 am)
Low48 °F (Sep 13, 8:00 am)29% (Sep 14, 5:00 pm)29.36 "Hg (Sep 25, 2:30 am)
Average63 °F75%29.96 "Hg
* Reported Sep 12 3:00 pm — Sep 27 3:30 pm, Caen. Weather by CustomWeather, © 2020

Note: Actual official high and low records may vary slightly from our data, if they occured in-between our weather recording intervals... More about our weather records

Caen Weather History for the Previous 24 Hours

Scroll right to see more
 ConditionsComfort  
Time TempWeatherWind HumidityBarometerVisibility
3:30 pm
Sun, Sep 27
52 °FLight rain. Overcast.15 mph88%29.89 "HgN/A
3:00 pm52 °FLight rain. Overcast.16 mph88%29.89 "HgN/A
2:30 pm52 °FLight rain. Overcast.14 mph88%29.89 "Hg4 mi
2:00 pm54 °FLight rain. Overcast.17 mph77%29.89 "HgN/A
1:30 pm54 °FOvercast.17 mph72%29.89 "HgN/A
1:00 pm54 °FOvercast.17 mph72%29.89 "HgN/A
12:30 pm54 °FOvercast.17 mph72%29.89 "HgN/A
12:00 pm54 °FOvercast.17 mph72%29.89 "HgN/A
11:30 am54 °FOvercast.17 mph67%29.89 "HgN/A
11:00 am54 °FOvercast.17 mph67%29.89 "HgN/A
10:30 am54 °FMostly cloudy.17 mph67%29.86 "HgN/A
10:00 am54 °FOvercast.16 mph67%29.86 "HgN/A
9:30 am52 °FMostly cloudy.18 mph72%29.86 "HgN/A
9:00 am52 °FMostly cloudy.18 mph72%29.86 "HgN/A
8:30 am52 °FMostly cloudy.18 mph72%29.86 "HgN/A
8:00 am54 °FMostly cloudy.16 mph67%29.86 "HgN/A
7:30 am54 °FMostly cloudy.16 mph67%29.86 "HgN/A
7:00 am54 °FOvercast.16 mph67%29.86 "HgN/A
6:30 am54 °FMostly cloudy.13 mph67%29.86 "HgN/A
6:00 am54 °FMostly cloudy.15 mph67%29.89 "HgN/A
5:30 am54 °FMostly cloudy.16 mph67%29.89 "HgN/A
5:00 am54 °FMostly cloudy.16 mph67%29.89 "HgN/A
4:30 am54 °FMostly cloudy.14 mph72%29.89 "HgN/A
4:00 am54 °FMostly cloudy.14 mph72%29.89 "HgN/A
3:30 am54 °FOvercast.14 mph72%29.89 "HgN/A
3:00 am54 °FOvercast.15 mph67%29.89 "HgN/A
2:30 am54 °FMostly cloudy.15 mph67%29.89 "HgN/A
2:00 am54 °FMostly cloudy.14 mph72%29.89 "HgN/A
1:30 am54 °FMostly cloudy.13 mph72%29.89 "HgN/A
1:00 am54 °FOvercast.15 mph72%29.89 "HgN/A
12:30 am54 °FOvercast.16 mph77%29.92 "HgN/A
12:00 am54 °FMostly cloudy.16 mph72%29.92 "HgN/A
11:30 pm
Sat, Sep 26
55 °FMostly cloudy.14 mph67%29.92 "HgN/A
11:00 pm55 °FMostly cloudy.17 mph67%29.89 "HgN/A
10:30 pm55 °FMostly cloudy.14 mph67%29.89 "HgN/A
10:00 pm55 °FMostly cloudy.16 mph63%29.89 "HgN/A
9:30 pm55 °FMostly cloudy.15 mph63%29.89 "HgN/A
9:00 pm55 °FOvercast.15 mph63%29.89 "HgN/A
8:30 pm55 °FMostly cloudy.14 mph63%29.89 "HgN/A
8:00 pm55 °FMostly cloudy.15 mph59%29.89 "HgN/A
7:30 pm54 °FMostly cloudy.13 mph63%29.89 "HgN/A
7:00 pm54 °FPartly sunny.14 mph63%29.86 "HgN/A
6:30 pm55 °FScattered clouds.15 mph55%29.89 "HgN/A
6:00 pm55 °FPassing clouds.14 mph55%29.89 "HgN/A
5:30 pm55 °FPassing clouds.15 mph55%29.89 "HgN/A
5:00 pm55 °FPassing clouds.14 mph55%29.89 "HgN/A
4:30 pm55 °FPartly sunny.16 mph55%29.89 "HgN/A
4:00 pm55 °FPartly sunny.15 mph55%29.89 "HgN/A
Weather by CustomWeather, © 2020

See weather overview